Regional Weather Roundup
Issued by NWS Newport/Morehead, NC

Current Version | Previous Version | Text Only | Print | Product List | Glossary On
Versions: 1 2 3 4 5 6 7 8 9 10 11 12 13 14 15 16 17 18 19 20 21 22 23 24 25 26 27 28 29 30 31 32 33 34 35 36 37 38 39 40 41 42 43 44 45 46 47 48 49 50
000
ASUS42 KMHX 302313
RWRMHX
WEATHER ROUNDUP FOR EASTERN NORTH CAROLINA
NATIONAL WEATHER SERVICE NEWPORT/MOREHEAD CITY NC
700 PM EDT TUE JUN 30 2015

NOTE: "FAIR" INDICATES FEW OR NO CLOUDS BELOW 12,000 FEET
WITH NO SIGNIFICANT WEATHER AND/OR OBSTRUCTIONS TO VISIBILITY

NCZ015>017-031-032-045>047-102-103-010000-
NORTH COAST

CITY           SKY/WX    TMP DP  RH WIND       PRES   REMARKS
EDENTON          N/A     87  69  54 S13       29.87R
ELIZABETH CITY SUNNY     86  68  54 S13       29.87R
KITTY HAWK     CLEAR     87  66  48 S9        29.89R
MANTEO         SUNNY     86  69  56 SW23      29.90R

$$

NCZ045>047-081-094-103-104-010000-
CENTRAL COAST

CITY           SKY/WX    TMP DP  RH WIND       PRES   REMARKS
FRISCO         SUNNY     82  73  74 SW18G26   29.94R
SWANQUARTER      N/A     86 N/A N/A SW17G26   29.88R

$$

NCZ095-097-098-100-101-010000-
SOUTHERN COAST

CITY           SKY/WX    TMP DP  RH WIND       PRES   REMARKS
BEAUFORT       SUNNY     82  75  79 SW22G29   29.94S
CEDAR ISLAND     N/A     86 N/A N/A S10G22    29.97S
JACKSONVILLE   SUNNY     84  68  58 S13G20    29.91F
PINEY ISLAND   CLEAR    N/A N/A N/A S18G28    29.93R
WILMINGTON     SUNNY     85  67  54 S16G25    29.93F


$$

NCZ011>013-027>030-043-044-078>080-089-090>093-098-010000-
COASTAL PLAIN

CITY           SKY/WX    TMP DP  RH WIND       PRES   REMARKS
AHOSKIE        MOSUNNY  N/A N/A N/A S3        29.86F
CLINTON        SUNNY     86  71  60 S7        29.89F
ELIZABETHTOWN  MOSUNNY   86  69  56 S12G20    29.91S
GOLDSBORO      SUNNY     89  68  51 S13G22    29.85F
GREENVILLE     SUNNY     88  70  55 S18G25    29.89S
HAVELOCK       MOSUNNY   84  68  58 SW16G22   29.94R
KENANSVILLE    SUNNY     85  66  53 S3        29.91R
KINSTON        SUNNY     88  68  51 S9G17     29.89S
NEW BERN       SUNNY     85  66  53 S14       29.92R
RICHLANDS      SUNNY     88  64  45 S15G24    29.91S
ROCKY MOUNT    MOSUNNY   89  68  49 S13G25    29.85S
WASHINGTON     SUNNY     87  68  54 S13G20    29.89R
WHITEVILLE     SUNNY     85  70  60 S9        29.91S

$$

AMZ130-135-150-152-154-156-158-170-250-252-270-ANZ085-086-088-633-658-670-010000-
MARINE OBSERVATIONS

STATION/POSITION TIME  TEMP    WIND        PRES    WAVE   SWELL
                       AIR SEA DIR/SP/G            HT/PER HT/PER
                 (UTC) (F)     (DEG/KT/KT) (MB)    (FT/S) (FT/S)
CHESAPEAKE LIGHT 2300   79     170/ 22/ 23 1011.3
64 E VA BEACH    2250   78 76  180/ 14/ 16 1011.8    4/ 8   3/ 8
DUCK             2200   86 70  190/ 14/ 18 1010.5
2 E DUCK         2211      78                N/A     2/ 7
OREGON INLET     2200   83 84  200/ 19/ 22 1012.2
13E OREGON INLT  2200      76                N/A     3/ 7
HATTERAS CG      2200   83 82  190/  8/ 15 1012.8
DIAMOND BUOY     2250   82 82  200/ 19/ 23 1013.1    4/ 8   2/ 8
CAPE LOOKOUT     2300   81     210/ 13/ 17 1013.9
BEAUFORT LAB     2200   82 82  210/ 16/ 19 1013.0
30 SE NEW RVR IN NOT AVBL
27 SE WRIGHTSVLE 2200      81  220/ 19/ 25   N/A
5 SE WRIGHTSVLE  2208   81 80  210/ 17/ 23 1013.9
225 S CAPE HAT   2250   81 80  230/ 14/ 16 1017.3    5/ 6   3/ 7
41 SE CHARLESTON 2250   83 83  200/ 17/ 21 1014.7    4/ 4   2/ 7

$$



USA.gov is the U.S. government's official web portal to all federal, state and local government web resources and services.